Weather History for Tegucigalpa, Honduras

Change the Weather History Date:

Tuesday, January 14, 2014

  Actual Average Record
Temperature  
Mean Temperature 68 °F -  
Max Temperature 79 °F 78 °F 82 °F (1999)
Min Temperature 57 °F 57 °F 35 °F (2005)
Cooling Degree Days 3    
Growing Degree Days 18 (Base 50)    
Moisture  
Dew Point 58 °F    
Average Humidity 75    
Maximum Humidity 100    
Minimum Humidity 39    
Precipitation  
Precipitation 0.00 in 0.01 in - ()
Sea Level Pressure  
Sea Level Pressure 30.06 in    
Wind  
Wind Speed 3 mph ()    
Max Wind Speed 10 mph    
Max Gust Speed -    
Visibility 6.3 miles    
Events      
Averages and records for this station are not official NWS values.
T = Trace of Precipitation, MM = Missing Value Source: Averaged Metar Reports

Daily Weather History Graph

Daily Weather History Graph

Search for Another Location

Airport:

Trip Planner

Search our weather history database for the weather conditions in past years. The results will help you decide how hot, cold, wet, or windy it might be!

Date:

Astronomy

Jan. 14, 2014 Rise Set
Actual Time 6:16 AM CST 5:39 PM CST
Civil Twilight 5:53 AM CST 6:02 PM CST
Nautical Twilight 5:27 AM CST 6:28 PM CST
Astronomical Twilight 5:01 AM CST 6:54 PM CST
Moon 4:39 PM CST (1/14) 4:54 AM CST (1/14)
Length of Visible Light 12h 08m
Length of Day
11h 22m
Waxing Gibbous, 98% of the Moon is Illuminated
Jan 14
Waxing Gibbous
Jan 15
Full
Jan 23
Last Quarter
Jan 30
New
Feb 6
First Quarter

Hourly Weather History & Observations

Time (CST) Temp. Dew Point Humidity Pressure Visibility Wind Dir Wind Speed Gust Speed Precip Events Conditions
12:00 AM 62 °F 60 °F 90% 30.07 in 6 mi Calm Calm - -   Haze
12:00 AM 62.6 °F 60.8 °F 94% 30.12 in 6.2 mi Calm Calm - N/A   Mostly Cloudy
1:00 AM 60.8 °F 60.8 °F 100% 30.12 in 6.2 mi Calm Calm - N/A   Mostly Cloudy
3:00 AM 58 °F 55 °F 88% 30.01 in 6 mi Calm Calm - -   Haze
3:00 AM 59.0 °F 55.4 °F 88% 30.09 in 6.2 mi Calm Calm - N/A   Partly Cloudy
4:00 AM 57.2 °F 55.4 °F 94% 30.09 in 6.2 mi Calm Calm - N/A   Mostly Cloudy
5:00 AM 57.2 °F 57.2 °F 100% 29.95 in 6.2 mi Calm Calm - N/A   Mostly Cloudy
6:00 AM 59 °F 59 °F 100% 30.09 in 6 mi Calm Calm - -   Mist
6:00 AM 59.0 °F 59.0 °F 100% 30.12 in 6.2 mi Calm Calm - N/A   Mostly Cloudy
7:00 AM 59.0 °F 57.2 °F 94% 30.12 in 6.2 mi Calm Calm - N/A   Mostly Cloudy
8:00 AM 62.6 °F 59.0 °F 88% 30.15 in 6.2 mi Calm Calm - N/A   Mostly Cloudy
9:00 AM 71 °F 60 °F 61% 29.99 in 6 mi NNE 6.9 mph - -   Haze
9:00 AM 71.6 °F 60.8 °F 69% 30.15 in 6.2 mi NNE 6.9 mph - N/A   Mostly Cloudy
10:00 AM 71.6 °F 60.8 °F 69% 30.15 in 6.2 mi North 6.9 mph - N/A   Mostly Cloudy
11:00 AM 75.2 °F 60.8 °F 61% 30.12 in 6.2 mi NNW 9.2 mph - N/A   Mostly Cloudy
12:00 PM 75 °F 57 °F 44% 29.91 in 6 mi East 9.2 mph - -   Haze
12:00 PM 75.2 °F 57.2 °F 53% 30.09 in 6.2 mi East 9.2 mph - N/A   Mostly Cloudy
1:00 PM 75.2 °F 55.4 °F 50% 30.06 in 6.2 mi East 6.9 mph - N/A   Mostly Cloudy
2:00 PM 75.2 °F 55.4 °F 50% 30.04 in 6.2 mi NE 8.1 mph - N/A   Mostly Cloudy
3:00 PM 77 °F 57 °F 39% 29.83 in 9 mi ENE 9.2 mph - -   Haze
3:00 PM 77.0 °F 57.2 °F 50% 30.04 in 6.2 mi ENE 9.2 mph - N/A   Mostly Cloudy
4:00 PM 73.4 °F 57.2 °F 57% 30.04 in 6.2 mi North 10.4 mph - N/A   Mostly Cloudy
5:00 PM 73.4 °F 57.2 °F 57% 30.06 in 6.2 mi North 9.2 mph - N/A   Mostly Cloudy
6:00 PM 69 °F 58 °F 59% 29.90 in 9 mi North 8.1 mph - -   Haze
6:00 PM 69.8 °F 57.2 °F 64% 30.06 in 6.2 mi North 8.1 mph - N/A   Scattered Clouds
7:00 PM 66.2 °F 57.2 °F 73% 30.09 in 6.2 mi North 6.9 mph - N/A   Partly Cloudy
8:00 PM 64.4 °F 57.2 °F 77% 30.09 in 6.2 mi North 4.6 mph - N/A   Partly Cloudy
9:00 PM 62 °F 57 °F 77% 30.04 in 6 mi West 2.3 mph - -   Haze
9:00 PM 62.6 °F 57.2 °F 82% 30.12 in 6.2 mi West 2.3 mph - N/A   Partly Cloudy
10:00 PM 59.0 °F 55.4 °F 88% 30.12 in 6.2 mi South 2.3 mph - N/A   Clear
11:00 PM 57.2 °F 55.4 °F 94% 30.12 in 6.2 mi Calm Calm - N/A   Clear